Regional Weather Roundup
Issued by NWS

Home | Current Version | Previous Version | Text Only | Print | Product List | Glossary Off
Versions: 1 2 3 4 5 6 7 8 9 10 11 12 13 14 15 16 17 18 19 20 21 22 23 24 25 26 27 28 29 30 31 32 33 34 35 36 37 38 39 40 41 42 43 44 45 46 47 48 49 50

000
ASUS43 KOAX 300202
RWRNE

WEATHER ROUNDUP FOR NEBRASKA
NATIONAL WEATHER SERVICE OMAHA NE
900 PM CDT TUE JUL 29 2014

NOTES: SATELLITE DATA IS BEING USED TO AUGMENT CLOUD COVER ABOVE
       12000 FEET.
       "FAIR" INDICATES FEW OR NO CLOUDS BELOW 12,000 FEET WITH NO
       SIGNIFICANT WEATHER AND/OR OBSTRUCTIONS TO VISIBILITY.

  * THESE STATIONS DO NOT REPORT WEATHER SUCH AS RAIN...SNOW OR FOG.

NEZ001>004-019>022-054>056-300300-
NEBRASKA PANHANDLE

CITY           SKY/WX    TMP DP  RH WIND       PRES   REMARKS
SCOTTSBLUFF    LGT RAIN  66  62  87 SE7       30.22R
ALLIANCE       CLOUDY    68  60  75 E5        30.20F
CHADRON        LGT RAIN  68  58  70 NE5       30.20F
KIMBALL        TSTM      62  60  95 CALM      30.24R
SIDNEY         CLOUDY    66  55  67 E17       30.20R
$$

NEZ057>060-069>072-079>082-300300-
SOUTHWEST NEBRASKA

CITY           SKY/WX    TMP DP  RH WIND       PRES   REMARKS
NORTH PLATTE   CLOUDY    68  64  87 N5        30.14F
IMPERIAL       CLOUDY    76  58  53 E16       30.13R
LEXINGTON      CLOUDY    73  61  65 E9        30.13F
MCCOOK         CLOUDY    75  58  55 E15       30.11R
OGALLALA       CLOUDY    71  58  64 E10       30.16R
$$

NEZ005>010-023>029-035>040-094-300300-
NORTH CENTRAL NEBRASKA

CITY           SKY/WX    TMP DP  RH WIND       PRES   REMARKS
VALENTINE      CLEAR     72  50  45 CALM      30.17S
AINSWORTH      PTCLDY    69  55  62 CALM      30.17S
BROKEN BOW     CLOUDY    71  62  73 E3        30.15S
O`NEILL        MOCLDY    69  55  59 E8        30.15S
ORD            CLOUDY    70  60  70 E3        30.13F
THEDFORD       CLOUDY    71  57  61 E6        30.19S
$$

NEZ041-046>049-061>064-073>077-083>087-300300-
SOUTH CENTRAL NEBRASKA

CITY           SKY/WX    TMP DP  RH WIND       PRES   REMARKS
GRAND ISLAND   CLOUDY    70  59  68 E5        30.14F
AURORA         MOCLDY    69  62  78 CALM      30.14F
HASTINGS       MOCLDY    72  57  59 E5        30.13F
HEBRON         PTCLDY    72  55  55 NE7       30.11F
HOLDREGE       CLOUDY    69  60  72 E7        30.13S
KEARNEY *      CLOUDY    70  59  68 E6        30.14F
YORK           MOCLDY    68  59  73 E5        30.14S
$$

NEZ011>018-030>034-042>045-300300-
NORTHEAST NEBRASKA

CITY           SKY/WX    TMP DP  RH WIND       PRES   REMARKS
NORFOLK        CLOUDY    69  55  60 E3        30.14R
ALBION         CLOUDY    67  59  74 E6        30.15S
BLAIR          PTCLDY    68  55  62 CALM      30.12R
COLUMBUS *     CLOUDY    52  52 100 CALM      30.14R
FREMONT        MOCLDY    73  56  54 CALM      30.13S
TEKAMAH        PTCLDY    66  58  75 CALM      30.11S
WAYNE          PTCLDY    66  59  78 CALM      30.14R
$$

NEZ050>053-065>068-078-088>093-300300-
SOUTHEAST NEBRASKA

CITY           SKY/WX    TMP DP  RH WIND       PRES   REMARKS
LINCOLN        MOCLDY    71  55  56 NE3       30.13S
OMAHA EPPLEY   MOCLDY    72  56  57 CALM      30.11S
BEATRICE       PTCLDY    70  58  65 NE6       30.12S
FALLS CITY     MOCLDY    72  59  63 NE3       30.09S
NEBRASKA CITY  MOCLDY    68  57  67 NE3       30.12R
PLATTSMOUTH    PTCLDY    68  56  65 CALM      30.12S
$$

NEZ044-045-051>053-067-300300-
OMAHA AREA

CITY           SKY/WX    TMP DP  RH WIND       PRES   REMARKS
OMAHA EPPLEY   MOCLDY    72  56  57 CALM      30.11S
BLAIR          PTCLDY    68  55  62 CALM      30.12R
FREMONT        MOCLDY    73  56  54 CALM      30.13S
MILLARD        PTCLDY    72  56  55 CALM      30.11S
PLATTSMOUTH    PTCLDY    68  56  65 CALM      30.12S
WAHOO          FAIR      69  59  71 N5        30.12S
$$



USA.gov is the U.S. government's official web portal to all federal, state and local government web resources and services.